Flag for U.S.A. Weather past 2 weeks in Spartanburg, South Carolina, U.S.A.

Now
59 °F

Clear.


Feels Like: 59 °F
Forecast: 47 / 77 °F
Wind: No wind

Location: Spartanburg Memorial

Current Time: Apr 21, 2015 at 10:17:55 PM

Latest Report: Apr 21, 2015 at 9:55 PM


Visibility: 10 mi

Pressure: 29.92 "Hg

Humidity: 45%

Dew point: 37 °F

Location of SpartanburgLocation

Historic Weather in Spartanburg — Graph

°F

Spartanburg temperature yesterday

Maximum temperature yesterday: 75 °F (at 11:55 AM)
Minimum temperature yesterday: 63 °F (at 4:55 PM)
Average temperature yesterday: 68 °F

Past Weeks' High & Low Weather Summary

 TemperatureHumidityPressure
High90 °F (Apr 9, 4:35 PM)100% (Apr 6, 10:35 PM)30.35 "Hg (Apr 6, 10:35 PM)
Low46 °F (Apr 21, 6:35 AM)12% (Apr 11, 4:15 PM)29.65 "Hg (Apr 20, 7:15 PM)
Average66 °F79%30.06 "Hg
* Reported Apr 6 9:15 PM — Apr 21 9:15 PM, Spartanburg, Weather by CustomWeather, © 2015

Note: Actual official high and low records may vary slightly from our data, if they occured in-between our weather recording intervals... More about our weather records

Advertising

Spartanburg weather history for previous 24 hours

 ConditionsComfort  
Time TempWeatherWind HumidityBarometerVisibility
9:15 PM
Tue, Apr 21
64 °FClear.5 mph30%29.89 "Hg10 mi
8:55 PM64 °FSunny.6 mph30%29.89 "Hg10 mi
8:35 PM64 °FSunny.3 mph30%29.88 "Hg10 mi
8:15 PM64 °FSunny.6 mph30%29.87 "Hg10 mi
7:55 PM68 °FSunny.7 mph26%29.85 "Hg10 mi
7:35 PM70 °FSunny.7 mph25%29.85 "Hg10 mi
6:55 PM72 °FSunny.12 mph23%29.84 "Hg10 mi
6:35 PM72 °FSunny.12 mph23%29.83 "Hg10 mi
6:15 PM73 °FSunny.15 mph22%29.83 "Hg10 mi
5:55 PM73 °FSunny.12 mph23%29.83 "Hg10 mi
5:15 PM73 °FSunny.9 mph22%29.83 "Hg10 mi
4:55 PM73 °FSunny.9 mph23%29.83 "Hg10 mi
4:35 PM73 °FSunny.13 mph23%29.83 "Hg10 mi
4:15 PM72 °FSunny.14 mph25%29.84 "Hg10 mi
3:55 PM73 °FSunny.7 mph23%29.84 "Hg10 mi
3:35 PM72 °FSunny.14 mph25%29.86 "Hg10 mi
3:15 PM72 °FSunny.9 mph25%29.87 "Hg10 mi
2:55 PM72 °FSunny.10 mph27%29.87 "Hg10 mi
2:35 PM70 °FSunny.15 mph29%29.88 "Hg10 mi
2:15 PM70 °FSunny.13 mph31%29.89 "Hg10 mi
1:55 PM70 °FSunny.7 mph29%29.90 "Hg10 mi
1:35 PM68 °FSunny.5 mph30%29.90 "Hg10 mi
1:15 PM68 °FSunny.10 mph30%29.91 "Hg10 mi
12:55 PM68 °FSunny.7 mph30%29.92 "Hg10 mi
12:35 PM68 °FSunny.6 mph30%29.93 "Hg10 mi
12:15 PM66 °FSunny.9 mph35%29.94 "Hg10 mi
11:55 AM64 °FSunny.6 mph34%29.94 "Hg10 mi
11:35 AM64 °FSunny.3 mph32%29.94 "Hg10 mi
11:15 AM64 °FSunny.3 mph37%29.95 "Hg10 mi
10:55 AM63 °FSunny.No wind39%29.94 "Hg10 mi
10:35 AM63 °FSunny.6 mph39%29.95 "Hg10 mi
10:15 AM61 °FSunny.5 mph48%29.94 "Hg10 mi
9:55 AM61 °FSunny.No wind48%29.94 "Hg10 mi
9:35 AM61 °FSunny.5 mph52%29.94 "Hg10 mi
9:15 AM59 °FSunny.5 mph55%29.94 "Hg10 mi
8:55 AM59 °FSunny.5 mph55%29.93 "Hg10 mi
8:35 AM55 °FSunny.3 mph72%29.93 "Hg10 mi
8:15 AM54 °FSunny.5 mph88%29.91 "Hg10 mi
7:55 AM50 °FSunny.No wind100%29.90 "Hg10 mi
7:35 AM48 °FClear.No wind100%29.90 "Hg10 mi
7:15 AM46 °FClear.No wind100%29.88 "Hg10 mi
6:55 AM46 °FClear.No wind100%29.87 "Hg10 mi
6:35 AM46 °FClear.No wind100%29.86 "Hg10 mi
6:15 AM48 °FClear.3 mph100%29.85 "Hg10 mi
5:55 AM50 °FClear.3 mph82%29.84 "Hg10 mi
5:35 AM54 °FClear.3 mph67%29.84 "Hg10 mi
5:15 AM52 °FClear.3 mph77%29.83 "Hg10 mi
4:55 AM50 °FClear.No wind88%29.83 "Hg10 mi
4:35 AM55 °FClear.No wind63%29.83 "Hg10 mi
4:15 AM55 °FClear.3 mph63%29.83 "Hg10 mi
3:55 AM55 °FClear.5 mph63%29.82 "Hg10 mi
3:35 AM55 °FClear.No wind67%29.82 "Hg10 mi
3:15 AM57 °FClear.No wind63%29.82 "Hg10 mi
2:55 AM59 °FClear.6 mph59%29.81 "Hg10 mi
2:35 AM59 °FClear.6 mph63%29.81 "Hg10 mi
2:15 AM57 °FClear.5 mph72%29.80 "Hg10 mi
1:55 AM59 °FClear.5 mph68%29.80 "Hg10 mi
1:35 AM59 °FClear.6 mph72%29.78 "Hg10 mi
1:15 AM61 °FClear.8 mph68%29.77 "Hg10 mi
12:55 AM61 °FClear.6 mph68%29.77 "Hg10 mi
12:35 AM61 °FClear.6 mph72%29.77 "Hg10 mi
12:15 AM61 °FClear.6 mph77%29.76 "Hg10 mi
11:55 PM
Mon, Apr 20
63 °FClear.7 mph77%29.76 "Hg10 mi
11:35 PM64 °FClear.6 mph83%29.75 "Hg10 mi
11:15 PM64 °FClear.6 mph88%29.74 "Hg10 mi
10:55 PM64 °FClear.6 mph94%29.74 "Hg10 mi
10:35 PM64 °FClear.5 mph100%29.73 "Hg10 mi
10:15 PM64 °FClear.6 mph100%29.72 "Hg10 mi
Weather by CustomWeather, © 2015

See weather overviewHow to use our weather pages